• In Lithuania
  • List of Countries
  • For 7 days
  • Water Temperature
  • Satellite Maps
  • Weather Map
  • Weather Widgets
  • user-avatar
    Login

    Hourly Weather Ventyan

    Today, 17 January, Wednesday

    Time Temperature Precipitation Wind Pressure Humidity
    00:00 +23°C° 0 mm 1 mps 744 mmHg 57%
    01:00 +22°C° 0 mm 1 mps 744 mmHg 60%
    02:00 +22°C° 0 mm 1 mps 744 mmHg 62%
    03:00 +21°C° 0 mm 1 mps 744 mmHg 65%
    04:00 +21°C° 0 mm 1 mps 744 mmHg 67%
    05:00 +20°C° 0 mm 1 mps 744 mmHg 70%
    06:00 +20°C° 0 mm 1 mps 744 mmHg 72%
    07:00 +20°C° 0 mm 1 mps 744 mmHg 74%
    08:00 +23°C° 0 mm 1 mps 745 mmHg 65%
    09:00 +26°C° 0 mm 1 mps 745 mmHg 57%
    10:00 +28°C° 0 mm 1 mps 745 mmHg 48%
    11:00 +30°C° 0 mm 1 mps 745 mmHg 43%
    12:00 +32°C° 0 mm 1 mps 744 mmHg 38%
    13:00 +34°C° 0 mm 1 mps 744 mmHg 33%
    14:00 +31°C° 0 mm 0 mps 743 mmHg 32%
    15:00 +31°C° 0 mm 0 mps 743 mmHg 32%
    16:00 +31°C° 0 mm 0 mps 742 mmHg 32%
    17:00 +29°C° 0 mm 0 mps 742 mmHg 37%
    18:00 +26°C° 0 mm 0 mps 742 mmHg 42%
    19:00 +24°C° 0 mm 0 mps 743 mmHg 47%
    20:00 +24°C° 0 mm 0 mps 743 mmHg 49%
    21:00 +23°C° 0 mm 0 mps 744 mmHg 51%
    22:00 +22°C° 0 mm 0 mps 744 mmHg 52%
    23:00 +24°C° 0 mm 1 mps 744 mmHg 54%

    Tomorrow, 18 January, Thursday

    Time Temperature Precipitation Wind Pressure Humidity
    00:00 +23°C° 0 mm 1 mps 744 mmHg 56%
    01:00 +23°C° 0 mm 1 mps 744 mmHg 58%
    02:00 +22°C° 0 mm 1 mps 744 mmHg 61%
    03:00 +22°C° 0 mm 1 mps 744 mmHg 64%
    04:00 +21°C° 0 mm 1 mps 744 mmHg 67%
    05:00 +21°C° 0 mm 1 mps 744 mmHg 69%
    06:00 +20°C° 0 mm 1 mps 744 mmHg 72%
    07:00 +20°C° 0 mm 1 mps 745 mmHg 74%
    08:00 +23°C° 0 mm 1 mps 745 mmHg 64%
    09:00 +26°C° 0 mm 1 mps 745 mmHg 55%
    10:00 +27°C° 0 mm 0 mps 746 mmHg 45%
    11:00 +29°C° 0 mm 0 mps 745 mmHg 41%
    12:00 +31°C° 0 mm 0 mps 744 mmHg 36%
    13:00 +33°C° 0 mm 0 mps 744 mmHg 31%
    14:00 +32°C° 0 mm 0 mps 743 mmHg 30%
    15:00 +32°C° 0 mm 0 mps 742 mmHg 29%
    16:00 +32°C° 0 mm 0 mps 742 mmHg 28%
    17:00 +30°C° 0 mm 0 mps 742 mmHg 33%
    18:00 +27°C° 0 mm 0 mps 743 mmHg 37%
    19:00 +25°C° 0 mm 0 mps 743 mmHg 42%
    20:00 +24°C° 0 mm 0 mps 744 mmHg 44%
    21:00 +24°C° 0 mm 0 mps 744 mmHg 45%
    22:00 +25°C° 0 mm 1 mps 745 mmHg 47%
    23:00 +25°C° 0 mm 1 mps 745 mmHg 49%

    Day after tomorrow, 19 January, Friday

    Time Temperature Precipitation Wind Pressure Humidity
    00:00 +24°C° 0 mm 1 mps 745 mmHg 52%
    01:00 +23°C° 0 mm 1 mps 745 mmHg 54%
    02:00 +23°C° 0 mm 1 mps 744 mmHg 57%
    03:00 +22°C° 0 mm 1 mps 744 mmHg 61%
    04:00 +21°C° 0 mm 1 mps 744 mmHg 64%
    05:00 +21°C° 0 mm 1 mps 745 mmHg 66%
    06:00 +21°C° 0 mm 1 mps 745 mmHg 69%
    07:00 +18°C° 0 mm 0 mps 746 mmHg 71%
    08:00 +23°C° 0 mm 1 mps 746 mmHg 63%
    09:00 +26°C° 0 mm 1 mps 747 mmHg 56%
    10:00 +28°C° 0 mm 1 mps 747 mmHg 48%
    11:00 +30°C° 0 mm 1 mps 746 mmHg 43%
    12:00 +32°C° 0 mm 1 mps 745 mmHg 37%
    13:00 +34°C° 0 mm 1 mps 745 mmHg 32%
    14:00 +34°C° 0 mm 1 mps 744 mmHg 31%
    15:00 +34°C° 0 mm 1 mps 743 mmHg 31%
    16:00 +34°C° 0 mm 1 mps 742 mmHg 30%
    17:00 +32°C° 0 mm 1 mps 743 mmHg 34%
    18:00 +30°C° 0 mm 1 mps 743 mmHg 39%
    19:00 +28°C° 0 mm 1 mps 744 mmHg 43%
    20:00 +27°C° 0 mm 1 mps 744 mmHg 45%
    21:00 +27°C° 0 mm 1 mps 745 mmHg 46%
    22:00 +26°C° 0 mm 1 mps 745 mmHg 48%
    23:00 +26°C° 0 mm 1 mps 745 mmHg 51%

    20 January, Saturday

    Time Temperature Precipitation Wind Pressure Humidity
    00:00 +25°C° 0 mm 1 mps 745 mmHg 54%
    01:00 +24°C° 0 mm 1 mps 745 mmHg 57%
    02:00 +24°C° 0 mm 1 mps 744 mmHg 60%
    03:00 +23°C° 0 mm 1 mps 744 mmHg 62%
    04:00 +23°C° 0 mm 1 mps 744 mmHg 65%
    05:00 +22°C° 0 mm 1 mps 744 mmHg 67%
    06:00 +22°C° 0 mm 1 mps 745 mmHg 68%
    07:00 +22°C° 0 mm 1 mps 745 mmHg 70%
    08:00 +25°C° 0 mm 1 mps 746 mmHg 62%
    09:00 +27°C° 0 mm 1 mps 746 mmHg 53%
    10:00 +30°C° 0 mm 1 mps 746 mmHg 45%
    11:00 +32°C° 0 mm 1 mps 745 mmHg 42%
    12:00 +33°C° 0 mm 1 mps 744 mmHg 38%
    13:00 +35°C° 0 mm 1 mps 743 mmHg 35%
    14:00 +35°C° 0 mm 1 mps 743 mmHg 35%
    15:00 +35°C° 0 mm 1 mps 742 mmHg 35%
    16:00 +35°C° 0 mm 1 mps 741 mmHg 35%
    17:00 +31°C° 0 mm 0 mps 742 mmHg 39%
    18:00 +29°C° 0 mm 0 mps 742 mmHg 44%
    19:00 +27°C° 0 mm 0 mps 743 mmHg 48%
    20:00 +27°C° 0 mm 0 mps 743 mmHg 50%
    21:00 +26°C° 0 mm 0 mps 744 mmHg 51%
    22:00 +26°C° 0 mm 0 mps 744 mmHg 53%
    23:00 +27°C° 0 mm 1 mps 744 mmHg 54%

    21 January, Sunday

    Time Temperature Precipitation Wind Pressure Humidity
    00:00 +27°C° 0 mm 1 mps 744 mmHg 56%
    01:00 +26°C° 0 mm 1 mps 743 mmHg 58%
    02:00 +26°C° 0 mm 1 mps 743 mmHg 60%
    03:00 +25°C° 0 mm 1 mps 743 mmHg 63%
    04:00 +25°C° 0 mm 1 mps 743 mmHg 66%
    05:00 +24°C° 0 mm 1 mps 743 mmHg 68%
    06:00 +24°C° 0 mm 1 mps 744 mmHg 69%
    07:00 +24°C° 0 mm 1 mps 744 mmHg 71%
    08:00 +26°C° 0 mm 1 mps 744 mmHg 63%
    09:00 +29°C° 0 mm 1 mps 745 mmHg 56%
    10:00 +32°C° 0 mm 1 mps 745 mmHg 48%
    11:00 +33°C° 0 mm 1 mps 744 mmHg 44%
    12:00 +33°C° 0 mm 0 mps 743 mmHg 40%
    13:00 +35°C° 0 mm 0 mps 742 mmHg 36%
    14:00 +34°C° 0 mm 0 mps 741 mmHg 36%
    15:00 +34°C° 0 mm 0 mps 741 mmHg 36%
    16:00 +34°C° 0 mm 0 mps 740 mmHg 36%
    17:00 +32°C° 0 mm 0 mps 740 mmHg 40%
    18:00 +30°C° 0 mm 0 mps 741 mmHg 44%
    19:00 +28°C° 0 mm 0 mps 741 mmHg 49%
    20:00 +28°C° 0 mm 0 mps 742 mmHg 50%
    21:00 +27°C° 0 mm 0 mps 742 mmHg 52%
    22:00 +26°C° 0 mm 0 mps 742 mmHg 54%
    23:00 +26°C° 0 mm 0 mps 742 mmHg 56%

    22 January, Monday

    Time Temperature Precipitation Wind Pressure Humidity
    00:00 +27°C° 0 mm 1 mps 742 mmHg 58%
    01:00 +27°C° 0 mm 1 mps 742 mmHg 59%
    02:00 +26°C° 0 mm 1 mps 742 mmHg 61%
    03:00 +26°C° 0 mm 1 mps 742 mmHg 62%
    04:00 +25°C° 0 mm 1 mps 742 mmHg 64%
    05:00 +25°C° 0 mm 1 mps 742 mmHg 66%
    06:00 +25°C° 0 mm 1 mps 742 mmHg 68%
    07:00 +24°C° 0 mm 1 mps 743 mmHg 70%
    08:00 +27°C° 0 mm 1 mps 743 mmHg 62%
    09:00 +29°C° 0 mm 1 mps 744 mmHg 55%
    10:00 +32°C° 0 mm 1 mps 744 mmHg 48%
    11:00 +34°C° 0 mm 1 mps 743 mmHg 43%
    12:00 +36°C° 0 mm 1 mps 742 mmHg 38%
    13:00 +36°C° 0 mm 0 mps 741 mmHg 33%
    14:00 +35°C° 0 mm 0 mps 741 mmHg 32%
    15:00 +35°C° 0 mm 0 mps 740 mmHg 32%
    16:00 +35°C° 0 mm 0 mps 739 mmHg 31%
    17:00 +33°C° 0 mm 0 mps 740 mmHg 35%
    18:00 +31°C° 0 mm 0 mps 740 mmHg 39%
    19:00 +31°C° 0 mm 1 mps 741 mmHg 43%
    20:00 +30°C° 0 mm 1 mps 741 mmHg 45%
    21:00 +29°C° 0 mm 1 mps 742 mmHg 47%
    22:00 +29°C° 0 mm 1 mps 742 mmHg 50%
    23:00 +28°C° 0 mm 1 mps 742 mmHg 51%
    Show more